Theta_e
313 315 315 316 316 314 313 312 311 312 313 311 312 313 313 312 311 310 310 310 309 308 310 310 310 310 309 309 309 308 308 309 308 308 308 309 309 309 310 310 309 309 309 309 307 307 307 308 308 308 308 308 307 306 305 306 306 306 305 305 304 304 303 303 303 303 303 304 303 302 302 304 304 303 302 302 302 301 300 298 296 296 295 295 295 294
310 314 315 316 315 313 313 312 310 311 312 312 313 313 312 311 311 310 310 310 308 308 310 311 310 309 309 309 309 309 309 309 309 309 309 309 309 310 310 310 310 310 311 311 309 307 306 308 308 307 308 307 306 306 306 306 306 306 305 305 305 304 303 302 302 302 303 303 303 303 303 303 303 301 301 301 301 300 299 297 296 295 295 295 295 295
313 313 314 314 312 312 315 315 312 312 313 313 313 312 312 312 311 311 311 312 310 309 312 313 310 309 309 309 309 310 309 309 310 310 310 310 310 310 310 310 311 311 312 311 309 307 306 307 308 307 307 307 307 307 306 306 306 305 305 305 304 303 303 302 302 302 302 303 302 302 302 301 300 299 300 300 299 299 297 296 295 295 295 295 295 295
317 316 314 311 309 310 313 314 312 312 312 314 313 312 313 312 312 312 313 316 313 309 311 311 309 310 310 309 310 309 309 309 309 309 310 310 310 310 310 311 310 311 311 310 309 309 307 306 306 307 306 306 307 306 305 305 305 304 305 305 304 303 303 302 302 302 302 302 301 301 300 299 298 298 297 297 297 296 296 295 295 295 294 295 294 294
315 316 313 312 311 310 312 311 311 312 312 314 314 312 313 312 312 311 312 315 312 311 313 311 311 314 314 314 315 313 312 311 309 310 311 311 309 309 310 311 310 310 311 310 310 312 312 309 305 306 306 306 305 305 305 305 305 305 305 305 304 303 303 302 302 301 301 301 300 299 299 298 297 297 296 295 295 295 294 294 294 294 294 294 294 294
313 315 313 313 313 311 311 312 314 315 312 312 315 314 312 312 312 312 313 311 312 316 315 312 314 317 317 318 321 321 320 316 314 315 317 315 311 311 313 313 311 310 312 313 313 315 317 310 303 305 306 305 305 306 306 305 305 305 304 304 304 303 302 302 301 301 300 300 300 299 298 297 296 296 295 295 295 294 294 295 294 294 294 294 294 294
313 314 311 313 315 313 313 314 316 315 311 313 318 318 314 312 313 314 313 312 315 318 313 313 317 316 315 317 320 321 320 319 318 318 317 313 311 313 315 313 311 311 313 317 318 318 318 312 306 306 305 305 306 306 306 305 304 304 304 304 303 303 302 302 301 300 300 300 299 299 298 298 297 296 296 296 296 295 295 295 294 294 294 294 294 294
315 313 310 313 316 316 314 314 316 313 312 316 317 319 318 316 315 314 312 312 315 315 312 314 317 315 315 315 317 317 315 318 318 316 314 311 312 314 313 312 312 313 314 318 318 318 319 312 305 305 305 306 307 307 307 305 304 304 304 303 303 303 302 302 301 300 300 300 299 299 298 298 298 298 298 297 296 296 295 294 294 293 293 293 293 293
314 314 314 315 316 317 316 317 317 313 314 317 313 314 316 315 315 313 313 314 314 314 314 314 314 316 318 315 316 314 314 319 318 316 315 314 314 313 311 311 311 314 316 316 314 315 314 307 302 303 305 307 308 308 308 306 305 304 303 303 303 303 302 301 301 300 300 300 299 299 298 298 298 298 298 297 297 296 295 294 293 293 292 292 292 293
312 313 315 318 318 317 318 319 318 314 315 314 310 312 315 315 315 313 314 316 317 318 316 314 315 318 319 317 317 314 315 321 321 318 317 316 316 315 314 312 311 315 316 314 313 313 309 303 302 304 306 307 308 307 308 307 306 304 303 303 302 302 302 301 301 300 300 299 299 299 298 298 298 298 297 297 297 296 295 294 293 293 292 292 292 292
310 309 310 316 317 315 317 315 312 313 314 311 312 316 318 317 315 315 316 316 318 320 317 317 317 316 319 320 319 318 318 321 322 321 320 320 319 320 319 314 312 315 313 313 316 314 308 303 303 305 307 308 308 307 307 306 305 304 303 303 303 302 302 301 301 300 300 299 299 299 298 298 298 298 297 297 296 296 295 294 293 293 292 292 292 292
309 309 311 316 316 313 314 313 308 309 310 311 316 317 317 317 316 318 319 317 318 321 319 317 315 315 318 318 316 318 319 317 317 318 320 323 322 322 321 314 311 312 311 313 318 318 315 311 308 306 306 307 307 306 306 305 304 304 303 303 303 302 302 301 301 300 300 299 299 299 298 298 298 298 297 297 296 296 295 295 294 293 293 292 292 292
316 315 313 314 312 310 312 313 311 310 309 311 315 315 314 317 318 318 320 318 318 320 316 313 313 313 316 316 315 315 315 314 313 313 316 321 320 319 319 312 309 312 312 313 317 318 319 319 314 304 303 305 306 305 305 304 303 303 303 302 302 302 302 301 300 300 300 299 299 298 298 298 298 297 297 297 296 296 296 295 294 293 293 292 292 292
322 319 312 310 311 312 313 313 314 316 312 310 313 315 316 318 319 320 321 319 318 320 315 310 313 315 315 317 318 315 313 316 316 314 315 315 314 316 314 308 310 316 314 313 316 317 317 317 310 301 300 303 303 303 303 303 303 302 302 302 302 302 301 301 300 300 299 299 299 298 298 298 297 297 297 297 297 296 296 295 294 294 293 293 293 293
323 323 318 315 315 313 311 312 319 322 315 309 313 318 317 319 322 322 323 323 321 322 316 309 314 319 318 318 317 315 316 318 317 314 312 313 314 316 311 307 314 318 312 311 311 311 311 308 302 299 300 302 301 301 301 301 302 301 301 301 301 301 301 300 300 299 299 299 298 298 298 297 297 297 297 297 297 296 295 295 294 294 294 293 293 293
318 324 323 316 313 312 311 314 318 320 316 312 315 317 315 318 322 319 321 323 320 320 317 313 317 318 316 316 314 314 315 314 314 313 313 315 316 315 312 311 314 312 307 307 306 304 304 301 298 299 300 300 300 299 299 299 299 299 300 300 300 300 300 299 299 299 299 298 298 298 297 297 297 297 297 296 296 296 295 295 295 294 294 294 294 293
318 323 320 311 309 311 313 313 313 316 316 314 313 316 315 317 319 317 319 320 318 318 319 318 319 317 316 317 314 318 320 316 316 316 313 314 317 317 314 310 308 306 303 302 301 300 300 298 297 298 298 298 298 297 297 297 297 297 298 298 298 299 299 299 298 298 298 298 297 297 297 297 297 296 297 296 296 296 295 295 295 295 294 294 293 293
319 320 318 313 312 311 307 309 312 313 313 314 317 316 314 314 315 316 318 320 319 319 320 319 320 318 319 319 316 318 322 317 316 318 317 316 317 316 311 306 304 302 300 299 297 297 297 296 296 295 296 296 296 296 296 296 296 296 296 296 296 297 297 298 298 297 297 297 297 297 297 296 296 296 296 296 296 296 295 295 295 295 294 294 293 293
318 316 318 315 313 312 308 310 314 312 308 312 316 314 313 316 316 316 319 319 319 320 320 321 321 318 318 319 317 316 318 316 316 318 317 313 310 307 303 302 300 298 296 296 295 294 294 294 294 294 294 294 294 295 295 295 295 295 295 295 295 295 296 296 296 297 297 296 296 297 296 296 296 296 296 296 296 295 295 295 295 295 294 294 294 293
316 316 319 315 312 313 313 313 317 316 310 309 311 311 313 314 314 316 317 318 320 319 320 322 321 320 319 318 316 316 316 315 314 313 311 306 303 301 300 299 297 295 295 294 293 293 293 293 293 293 293 293 293 294 294 294 294 294 294 294 294 295 295 295 295 295 296 296 296 296 296 296 296 295 295 295 295 295 295 295 295 295 294 294 294 293
317 317 318 316 314 315 315 316 319 319 315 312 312 313 313 312 315 317 316 317 318 318 319 321 320 322 325 321 317 317 313 309 309 308 305 300 298 297 296 295 294 294 293 292 292 292 292 292 292 292 292 292 292 293 293 293 293 293 293 293 294 294 294 295 295 294 295 295 296 296 296 296 296 295 295 295 295 295 295 295 295 294 294 294 293 293
319 318 317 317 316 315 316 319 320 319 318 316 315 315 315 315 317 318 318 318 318 317 319 320 319 322 327 323 317 314 307 301 301 302 300 297 296 295 294 294 293 293 292 292 292 291 291 291 291 291 291 291 291 292 292 292 292 292 292 292 293 293 294 294 294 294 294 294 295 295 295 296 296 295 295 295 295 295 295 295 294 294 294 294 293 293
315 316 316 317 316 316 316 317 318 317 317 316 315 316 316 316 316 318 320 319 318 318 318 319 319 320 323 322 314 306 300 297 296 297 296 295 294 293 293 293 292 292 292 291 291 291 291 290 290 290 290 291 291 291 291 291 291 291 291 291 292 292 293 293 294 294 294 293 294 294 295 295 295 295 295 294 294 294 294 294 294 294 294 293 293 293
312 314 315 316 316 317 317 317 315 314 315 315 315 315 315 315 316 316 316 316 316 317 317 319 320 319 322 322 309 299 296 296 295 294 294 294 293 293 293 292 292 292 291 291 291 291 290 290 290 290 290 290 290 290 291 291 291 290 290 290 290 291 292 292 293 294 294 294 293 293 293 294 294 295 294 294 294 294 294 294 294 294 293 293 293 292
312 314 315 316 316 317 317 316 314 313 315 317 316 316 314 315 316 315 313 315 316 317 317 318 319 319 322 320 309 300 297 295 293 293 293 293 293 293 292 292 292 292 291 291 291 290 290 290 290 289 289 290 290 290 290 290 290 290 289 289 290 290 290 291 292 292 293 293 293 293 293 293 293 293 294 294 294 294 294 294 294 293 293 293 292 292
311 313 314 315 316 316 315 314 314 313 313 314 315 315 314 313 314 314 314 316 316 316 317 316 316 316 317 316 312 306 301 296 293 292 292 292 292 292 292 293 292 292 292 291 291 290 290 290 290 289 289 289 289 289 290 290 290 290 289 289 289 289 290 290 291 291 291 292 293 293 293 292 292 292 292 293 293 293 294 294 294 293 293 293 292 292
311 312 313 314 314 314 314 313 312 311 310 311 312 312 312 312 312 312 313 314 314 314 313 313 314 314 313 313 311 305 300 296 294 292 291 292 292 292 292 292 292 292 292 292 291 291 291 290 290 289 289 289 289 289 289 289 290 290 289 288 288 289 289 289 290 290 290 290 291 292 292 292 292 292 292 292 292 293 293 293 293 293 293 293 292 292
309 310 311 311 311 312 312 311 309 307 307 308 308 308 309 309 309 310 310 310 311 312 312 313 313 312 311 311 307 300 296 294 293 293 292 291 292 292 292 293 293 292 292 291 291 291 291 291 290 289 289 289 289 289 289 289 289 290 289 288 288 288 289 289 289 289 289 289 290 290 290 291 292 292 292 291 291 292 292 292 292 292 293 293 292 292
307 306 308 308 308 309 308 307 305 304 304 305 305 306 306 306 307 307 307 307 309 310 310 310 310 309 308 306 299 295 294 293 293 293 292 292 292 292 292 293 293 293 292 292 291 291 291 291 290 290 289 289 289 289 289 289 289 289 289 289 288 288 288 289 289 289 289 288 288 289 289 290 291 292 292 292 291 291 291 291 292 292 292 292 292 292
304 304 306 305 304 304 304 303 303 302 302 302 303 303 304 304 305 304 304 305 306 307 307 306 306 306 304 299 295 293 293 293 293 293 293 293 292 292 292 292 293 293 293 292 292 291 291 290 290 289 288 289 289 289 289 289 289 289 289 289 288 287 288 288 288 289 288 288 287 288 288 289 289 290 291 292 292 291 291 291 291 291 291 291 292 292
303 303 304 302 301 301 300 301 301 301 301 301 301 301 302 301 301 301 301 302 302 303 303 303 305 304 298 293 293 293 292 292 292 292 293 293 293 293 293 293 293 293 292 292 292 291 291 291 290 289 288 288 288 289 289 289 289 289 289 289 288 287 287 288 288 288 288 288 287 287 287 287 288 289 290 291 291 292 291 291 290 290 290 291 291 291
301 301 301 299 298 299 298 299 299 299 299 299 298 298 298 298 299 299 299 300 301 302 303 303 304 302 296 292 293 293 291 292 291 291 292 293 293 293 292 292 293 292 292 292 292 292 291 291 291 289 288 288 288 288 289 289 289 289 289 288 288 287 287 287 287 288 288 288 287 286 286 287 287 287 288 289 290 291 291 291 290 290 290 290 290 290
299 299 298 297 297 297 296 297 297 297 296 295 295 297 297 297 298 297 298 301 303 302 303 304 301 298 295 293 293 293 292 292 291 291 292 292 292 293 293 292 293 293 292 293 292 292 292 291 290 289 288 289 288 288 288 289 289 288 288 288 287 287 287 287 287 287 287 287 287 286 286 286 286 286 287 287 288 289 291 291 290 290 289 289 289 290
298 297 296 296 296 296 296 296 296 295 293 293 296 300 300 299 299 299 301 303 302 300 300 300 297 295 295 295 295 294 293 292 292 292 292 292 291 292 292 292 293 293 293 293 293 293 292 290 289 289 289 289 289 288 288 288 288 288 288 287 287 286 286 286 287 287 287 287 287 286 286 286 286 286 286 286 287 287 289 290 290 290 289 289 288 289
296 295 295 296 296 295 296 296 295 294 293 295 300 300 299 300 301 300 300 299 297 296 297 296 296 296 296 295 294 294 293 292 292 292 292 292 291 291 292 293 293 293 293 293 293 293 292 290 289 289 289 289 289 288 288 288 288 288 287 287 287 286 286 286 286 286 287 287 286 286 286 286 286 286 286 286 286 286 287 288 289 290 290 288 288 288
294 294 294 296 295 295 296 296 295 295 295 297 299 297 295 297 298 297 298 297 295 295 295 294 295 296 296 295 294 293 292 292 292 292 292 292 291 291 292 293 293 293 293 293 292 292 290 290 290 289 289 289 288 288 287 287 288 287 287 287 286 286 285 285 285 286 286 286 286 285 285 285 285 286 285 285 285 286 286 286 287 289 289 288 288 287
294 294 294 294 294 294 294 294 295 295 295 297 297 296 295 296 297 296 297 297 295 295 294 293 295 296 296 296 295 293 292 292 292 292 291 292 292 292 292 293 292 292 292 291 291 291 291 291 290 290 289 289 288 288 287 287 287 287 287 286 285 285 285 285 285 285 285 285 286 285 284 285 285 285 285 285 285 285 286 286 286 287 288 288 288 287
293 294 294 293 293 295 295 295 296 296 296 298 297 295 294 295 296 296 296 297 295 294 292 292 295 296 295 295 295 293 292 292 292 291 291 293 294 293 293 293 291 291 291 291 290 291 291 291 290 289 288 288 287 287 287 286 287 287 286 286 285 284 284 284 284 284 285 285 285 284 284 284 285 285 285 285 285 285 285 285 285 286 287 287 287 287
292 293 294 294 294 296 296 296 296 296 297 298 298 295 294 294 295 294 295 295 292 290 290 291 293 295 295 295 294 293 292 292 291 290 290 293 294 293 293 293 290 289 290 290 290 290 291 290 289 288 287 287 286 286 286 285 286 286 286 285 285 284 284 283 283 283 284 284 284 283 283 283 284 284 284 284 284 284 284 284 284 285 285 286 286 286
292 294 294 294 294 295 295 295 295 295 296 297 297 295 294 293 294 293 294 293 290 289 291 293 293 294 294 294 294 293 293 292 291 290 289 291 292 291 291 291 290 288 288 289 290 290 289 288 287 286 286 285 285 285 284 284 285 285 285 284 284 283 283 283 283 283 283 283 283 282 282 282 283 283 283 283 284 284 284 284 284 284 284 285 286 286
292 293 293 293 295 295 295 295 295 295 296 297 298 297 294 292 291 293 293 292 290 289 291 292 293 294 293 293 293 292 292 292 291 290 290 289 289 289 288 287 288 287 288 289 288 287 286 285 285 285 284 284 284 283 283 283 284 284 283 283 283 282 282 282 282 282 282 281 281 281 280 281 281 282 282 282 283 283 283 283 283 283 284 284 285 285
290 290 290 291 292 293 293 294 293 293 295 296 296 294 291 290 292 295 294 291 289 290 290 291 291 292 292 292 292 291 291 290 290 290 290 289 289 289 287 286 286 287 287 286 286 284 283 283 283 283 282 282 282 282 282 282 282 282 282 282 281 281 281 281 281 281 281 280 280 280 280 280 280 280 280 281 282 283 282 282 282 282 283 283 284 284
291 291 292 293 291 290 291 292 292 292 292 293 292 290 290 291 294 295 292 290 290 290 289 289 290 291 291 291 290 290 289 289 289 289 289 289 288 287 286 285 285 284 284 283 283 282 282 281 281 281 281 281 280 280 280 281 281 281 280 280 280 280 280 280 280 279 279 279 279 279 278 279 279 279 279 280 281 281 280 280 281 281 282 282 283 283
291 292 292 292 291 291 291 292 293 294 294 292 291 291 292 292 291 291 290 289 290 290 289 289 289 290 290 289 288 288 287 287 288 288 288 287 286 285 283 283 282 281 281 281 281 281 280 280 279 279 279 279 279 279 279 279 279 279 279 279 279 279 279 278 278 278 278 278 278 277 277 277 277 277 278 278 278 278 278 279 280 281 281 282 282 282
292 292 292 291 291 292 292 292 293 293 293 292 291 290 290 290 289 289 289 289 289 289 288 288 288 288 288 287 286 287 287 287 287 286 284 283 282 282 281 280 280 280 280 280 279 279 279 278 278 278 278 278 277 277 277 277 277 277 277 278 278 277 277 277 277 276 276 276 276 276 276 276 276 276 276 276 276 276 277 278 279 280 281 281 281 281
291 291 291 290 290 290 290 290 290 290 290 290 290 289 289 289 289 289 289 289 288 288 287 286 286 287 286 285 285 285 285 284 283 281 281 280 280 280 279 279 279 279 278 278 278 278 277 277 276 276 276 276 276 276 276 276 276 276 276 276 276 276 275 275 275 275 275 275 274 274 274 274 274 274 274 274 274 274 275 276 278 279 280 281 281 281
289 289 289 289 289 289 289 289 289 289 289 289 289 289 289 289 289 289 289 288 287 287 286 284 284 284 283 282 282 281 280 280 279 279 278 278 278 278 278 278 277 277 277 277 276 276 275 275 274 274 274 274 274 274 274 274 274 274 274 274 274 274 274 273 273 273 273 272 272 272 272 272 272 272 272 272 272 273 274 275 277 278 280 280 280 281
289 289 289 289 289 288 288 288 288 289 290 289 289 289 289 289 289 288 287 285 284 282 280 280 280 280 279 279 279 279 278 278 277 277 277 277 277 277 276 276 276 275 275 274 274 274 273 273 273 273 273 273 273 273 273 273 272 272 272 272 272 272 271 270 270 270 270 270 270 270 270 270 270 270 271 271 271 272 273 274 276 277 279 279 280 280
289 289 289 290 289 288 288 288 288 289 289 289 289 289 288 288 287 286 283 281 280 279 277 277 277 277 277 277 277 277 277 276 276 275 275 275 275 275 274 274 274 273 273 272 272 272 272 271 271 271 271 271 271 270 270 270 269 269 269 269 269 268 268 268 267 267 268 268 268 268 268 268 269 269 269 270 270 271 272 273 274 276 277 278 279 280
289 288 288 289 289 288 288 288 288 288 288 288 289 288 286 283 282 282 281 279 278 277 276 275 275 275 275 275 275 275 275 275 274 274 274 273 273 273 272 272 272 271 271 271 270 270 270 269 269 269 268 268 267 267 267 266 266 266 265 265 265 265 265 265 265 265 265 266 266 266 267 267 268 268 268 269 270 270 271 272 273 274 276 277 278 279
288 288 288 288 288 288 288 288 288 288 288 288 287 284 279 277 279 280 279 277 275 275 274 273 274 273 273 273 273 273 273 273 272 272 271 271 271 271 270 270 270 270 269 269 268 268 267 266 266 265 265 265 264 264 264 263 263 263 262 262 262 262 262 263 263 263 264 264 264 265 265 266 266 267 267 267 268 269 270 270 271 272 273 274 276 277
Wind_Speed
3 3 3 5 9 12 12 10 12 10 4 1 2 4 6 7 8 9 10 8 1 4 8 11 18 17 13 14 13 13 13 11 15 18 17 16 16 16 14 13 13 14 14 11 12 13 13 15 15 17 19 20 23 26 28 31 34 36 37 38 40 42 42 42 42 42 42 42 42 41 43 48 50 49 49 49 51 52 52 52 51 51 51 50 50 49
2 5 7 11 14 10 5 4 6 6 5 5 5 7 7 6 11 11 11 11 2 2 6 7 15 17 13 15 14 13 14 17 18 16 16 18 18 16 15 17 15 10 9 8 8 9 11 13 14 15 17 19 22 25 28 31 34 36 36 39 41 40 40 43 44 44 45 48 47 47 50 52 50 49 50 51 53 53 52 51 51 51 51 51 51 51
2 5 9 14 10 1 3 4 3 3 5 6 4 5 6 4 9 10 8 9 2 2 5 7 14 15 12 17 18 17 17 16 15 12 13 17 17 18 17 14 10 8 8 6 6 8 10 12 13 14 16 19 23 25 26 28 31 33 35 39 39 38 40 42 44 44 46 47 46 44 43 43 41 42 46 48 47 48 49 49 49 50 51 52 52 51
5 5 11 13 6 2 4 2 4 2 4 6 5 4 7 4 5 7 5 5 3 3 6 9 14 13 11 15 16 15 12 11 14 13 13 16 17 20 16 8 7 9 10 9 6 5 7 11 13 14 16 18 20 22 23 25 28 31 34 37 37 37 39 41 43 44 44 40 38 37 34 32 33 34 37 39 40 43 44 45 48 50 51 51 51 51
7 4 5 5 5 8 8 3 2 5 6 7 6 5 9 10 10 10 6 6 6 5 4 7 12 9 5 7 6 5 4 6 11 11 14 17 14 12 11 7 5 6 7 8 6 5 7 9 13 15 15 15 17 20 22 23 26 30 33 35 36 37 38 40 42 42 40 36 34 34 29 26 28 28 29 34 39 40 41 45 48 49 50 51 51 51
8 4 3 3 4 6 6 6 6 7 8 6 5 11 15 14 11 11 8 7 5 4 4 5 7 7 1 1 4 3 3 5 5 8 17 15 2 2 7 6 3 3 3 3 4 6 6 7 12 16 16 14 15 18 19 20 23 27 30 32 33 35 36 37 39 39 38 37 35 35 32 29 29 29 33 41 44 43 45 48 49 49 50 51 51 51
4 4 1 3 4 6 5 6 7 8 6 7 5 11 14 10 8 10 7 4 1 4 3 3 2 7 4 2 6 4 3 8 8 11 17 9 4 3 6 5 5 4 3 2 4 6 5 6 9 13 15 16 16 17 17 17 18 22 26 28 30 32 34 35 36 37 38 38 37 37 37 34 33 34 38 41 39 40 45 45 45 48 50 51 52 52
3 1 3 4 5 5 5 6 7 9 5 6 4 6 8 7 7 6 3 3 3 3 3 1 3 6 9 4 4 3 3 8 12 13 14 9 6 7 5 4 4 2 1 3 5 4 5 6 6 8 14 15 15 16 16 15 15 16 20 24 27 29 32 33 34 35 38 39 38 38 38 35 36 37 35 31 30 33 38 39 40 43 46 49 50 51
3 3 4 6 5 3 6 6 7 11 6 6 2 4 5 5 4 4 4 4 2 3 4 3 4 3 10 5 1 2 3 7 12 12 12 9 8 9 4 4 2 1 1 4 6 4 4 8 7 8 12 14 14 14 14 14 13 12 14 19 23 26 28 31 32 34 37 39 38 37 38 37 37 36 29 25 27 30 32 35 37 38 41 45 46 48
1 3 6 8 5 6 7 5 7 11 6 4 5 5 4 3 3 3 2 2 2 4 4 5 5 3 9 5 3 3 1 6 9 8 9 8 7 7 4 3 1 3 4 5 6 4 5 6 9 11 12 13 13 13 13 13 12 10 10 13 18 22 26 28 31 33 36 38 37 37 38 37 35 32 28 25 26 28 30 32 34 35 38 40 43 45
1 1 2 5 4 5 4 2 3 7 5 3 5 4 5 4 4 3 1 3 2 6 5 9 10 5 6 4 4 3 3 5 5 5 7 7 4 4 4 2 2 4 5 6 4 4 6 9 13 13 14 16 16 15 14 13 11 9 8 9 13 18 22 26 29 31 34 36 38 38 37 37 34 30 28 28 27 29 31 33 34 36 36 38 41 43
1 1 2 3 2 3 5 3 2 1 3 3 3 3 3 3 4 4 4 3 1 7 5 8 10 7 7 5 1 4 6 5 5 4 6 8 7 7 5 2 4 2 6 5 5 5 6 10 12 13 16 19 21 22 20 17 14 10 7 7 10 13 18 23 26 29 32 34 37 38 36 36 35 32 30 31 30 31 33 35 36 36 37 38 40 42
1 5 4 3 2 5 4 1 2 3 3 3 3 1 2 4 3 3 2 1 3 7 4 2 3 4 9 6 3 9 13 9 6 6 7 7 8 10 8 3 4 3 5 5 6 5 6 6 6 10 15 18 22 25 24 21 17 13 9 7 9 11 14 19 23 27 30 33 37 38 36 36 35 34 34 34 33 33 34 35 35 36 38 39 41 44
4 4 2 1 3 4 7 5 3 1 3 4 4 4 2 1 2 3 2 2 4 5 4 2 1 4 8 5 6 12 13 8 3 5 8 7 8 11 9 5 4 4 5 6 6 7 7 6 7 11 15 17 21 25 26 25 20 16 13 11 10 12 12 15 21 25 28 32 35 36 36 36 34 34 35 35 34 33 34 35 36 38 40 41 44 48
4 7 4 6 3 6 9 8 5 5 5 5 5 5 4 3 3 4 3 4 6 4 3 2 2 3 3 3 5 8 7 6 4 3 4 5 6 8 6 5 6 6 7 7 8 9 9 9 11 13 14 18 24 29 31 30 25 20 18 15 13 14 13 13 17 22 26 30 33 34 35 35 34 34 34 34 34 33 34 34 35 37 39 42 45 46
4 8 6 2 1 8 9 5 4 6 2 3 4 4 2 4 4 3 4 5 3 3 3 2 3 5 4 7 9 6 5 6 5 4 4 5 5 5 5 6 7 8 8 9 9 11 11 11 13 15 17 22 28 32 33 32 29 24 21 19 17 16 15 14 15 18 23 27 29 31 33 34 34 33 32 33 33 33 34 34 35 37 40 42 42 42
3 6 3 2 1 5 5 2 3 2 2 2 3 3 3 3 5 2 5 2 1 3 6 4 6 6 5 10 8 3 5 5 6 6 4 4 6 6 6 7 8 9 10 10 11 11 11 12 16 21 23 26 28 30 31 31 29 27 25 22 20 19 18 16 15 17 20 23 26 29 31 32 33 33 34 34 34 34 34 34 36 37 38 39 39 39
4 6 3 3 3 3 1 1 2 2 2 5 3 4 1 2 3 1 2 0 1 6 6 5 10 10 6 8 4 6 9 8 7 7 5 4 6 7 7 8 9 10 11 12 13 13 11 13 17 21 23 24 23 24 25 26 28 32 33 30 26 24 23 21 19 18 19 21 23 26 28 30 32 33 34 34 33 33 32 33 35 36 38 38 38 39
2 5 4 1 4 2 2 2 2 3 1 4 3 2 1 1 2 1 2 1 4 7 4 5 11 9 6 9 7 7 10 7 5 6 7 9 10 10 10 11 13 13 12 12 12 11 10 11 15 18 19 19 20 21 21 22 26 31 32 32 31 31 30 28 24 21 20 20 22 24 25 27 30 31 32 33 32 32 32 33 35 36 38 38 38 39
2 3 4 0 2 0 3 1 2 2 0 2 1 2 1 2 3 2 2 1 3 7 6 6 8 6 5 7 7 5 5 5 6 7 10 12 12 11 11 11 13 12 11 10 9 8 7 9 12 15 15 16 17 15 15 19 26 31 33 35 37 38 39 37 33 27 23 21 21 23 24 25 28 30 31 32 32 32 33 34 35 36 37 38 39 39
2 2 3 2 1 1 1 3 5 5 3 1 1 2 2 1 1 2 1 1 2 5 5 5 5 5 3 5 7 5 5 7 9 9 10 11 11 11 10 10 9 9 9 9 7 7 6 9 13 15 15 15 16 19 24 30 36 39 40 41 41 40 40 39 38 34 29 24 21 22 23 24 26 28 30 32 32 34 34 35 35 36 37 38 38 38
0 2 3 3 4 4 6 6 7 8 6 5 4 5 5 4 2 5 5 4 3 4 4 6 8 6 4 6 7 5 9 9 9 9 9 9 9 9 9 9 8 8 9 8 9 9 9 12 17 21 23 24 27 31 35 38 39 39 38 38 38 38 38 37 37 37 34 29 24 22 23 24 25 26 28 30 32 34 35 35 36 37 37 38 38 38
2 2 3 6 7 8 11 6 4 7 6 3 3 4 5 5 5 8 10 5 4 5 6 7 9 6 3 4 3 10 10 7 8 9 8 7 7 7 7 8 8 8 8 9 9 10 10 14 19 23 27 30 32 33 34 33 33 33 33 33 33 35 37 38 38 38 37 34 29 25 23 23 24 25 27 28 31 33 34 36 37 37 37 38 38 38
2 2 2 6 5 6 9 5 3 1 2 2 3 4 5 5 5 7 7 3 3 5 5 6 7 3 3 3 6 11 8 7 9 9 8 7 6 7 7 7 7 7 7 9 8 8 10 14 17 20 22 25 26 28 29 29 29 29 30 31 31 31 33 35 36 37 38 36 34 31 26 24 23 24 25 27 30 32 33 35 35 36 37 37 37 37
1 1 2 3 4 4 6 5 3 4 2 0 3 3 2 3 5 6 3 1 2 5 7 7 5 2 2 4 5 9 7 8 8 7 7 6 6 7 8 8 7 7 7 8 8 8 9 11 13 14 17 19 20 23 24 26 28 29 30 31 30 30 31 32 33 34 35 36 36 35 32 28 25 23 24 26 28 30 32 33 34 34 35 35 36 37
0 2 2 2 5 6 6 6 2 1 2 2 3 4 4 3 5 6 4 4 4 5 6 6 5 4 6 6 7 9 7 7 7 6 6 5 5 6 6 7 7 8 9 10 9 9 8 8 9 11 13 15 16 18 20 22 25 27 29 31 32 31 32 33 34 33 33 33 34 35 35 33 30 27 25 24 26 27 29 30 32 33 34 34 36 36
1 2 4 6 7 7 7 7 2 1 3 4 4 6 6 7 6 5 5 5 7 7 6 7 9 11 11 9 6 7 7 6 6 5 5 4 4 5 4 4 4 4 5 7 8 9 9 9 9 11 14 15 16 17 17 18 20 23 26 30 32 33 32 34 34 34 33 32 31 32 34 35 34 31 29 26 25 25 26 27 29 30 32 33 35 36
1 2 5 8 9 8 10 10 5 3 4 6 8 9 10 10 9 9 10 9 9 9 8 8 10 12 13 10 4 4 6 6 6 5 4 3 3 3 4 5 5 5 4 4 4 5 7 8 8 10 14 16 18 19 19 19 20 21 22 25 28 31 32 33 33 32 32 32 31 31 32 33 33 33 32 30 27 25 24 25 25 27 29 31 33 35
2 4 5 5 7 7 8 9 6 5 6 6 8 11 12 13 13 13 13 12 10 10 10 11 15 17 13 6 0 2 3 3 4 4 3 2 3 3 3 4 5 6 7 6 5 4 4 5 5 6 11 14 16 17 19 20 22 24 25 26 28 29 30 31 31 31 31 32 32 33 34 34 34 35 34 33 32 29 27 25 24 25 26 28 31 33
2 3 3 3 5 6 8 10 10 8 9 10 10 11 13 15 16 15 15 15 14 16 16 17 20 19 8 1 2 1 1 2 3 4 4 4 3 3 3 3 4 4 5 6 7 7 6 6 6 6 9 12 13 15 17 18 21 22 24 26 29 30 30 29 29 28 29 30 31 33 34 35 36 37 37 36 35 34 31 28 26 24 24 25 28 30
1 3 4 4 5 8 11 13 13 12 12 13 12 12 14 16 17 17 16 16 15 17 16 16 17 11 0 3 2 1 1 3 4 4 5 4 4 4 5 4 4 4 4 5 6 6 6 7 8 8 10 12 14 15 16 18 20 20 21 23 26 27 28 28 27 26 25 26 28 30 32 34 35 36 37 37 37 36 35 32 29 26 25 24 25 27
1 2 4 4 5 9 11 10 10 9 9 11 13 15 19 18 16 15 14 13 11 10 10 11 10 4 2 2 2 2 3 4 4 5 5 4 4 4 5 6 5 5 5 5 5 6 7 7 7 8 11 15 17 17 17 17 19 20 21 23 24 25 26 26 26 26 25 25 27 28 30 31 33 34 35 35 36 36 36 34 32 30 27 25 25 25
2 2 3 3 5 9 8 4 3 4 6 10 11 13 16 15 13 13 11 9 6 3 4 7 4 1 2 2 2 3 3 3 4 5 5 5 5 5 6 6 6 6 6 6 6 7 7 7 8 10 13 17 19 19 19 18 17 17 19 22 24 24 24 24 24 25 25 25 27 28 29 29 30 32 33 33 34 35 35 35 33 31 29 28 26 24
4 5 5 3 4 8 6 3 4 4 9 9 5 3 6 8 9 9 6 3 2 1 1 1 1 3 2 4 4 4 4 4 5 5 6 6 5 6 7 7 7 7 7 6 7 7 6 7 10 13 15 18 20 22 23 21 18 17 18 20 22 22 22 22 23 23 23 23 25 27 28 28 28 29 31 32 32 33 33 33 33 32 31 29 27 25
5 5 4 2 3 5 3 4 4 8 8 6 2 0 2 2 3 1 1 3 2 2 4 3 2 4 4 5 6 6 6 6 5 6 8 8 6 7 8 7 7 8 7 7 7 7 7 9 12 14 16 18 20 22 23 23 22 21 20 21 21 21 21 21 21 21 21 21 23 25 27 27 27 28 29 30 31 31 31 32 32 33 32 30 28 26
6 4 2 1 2 1 1 2 6 6 4 7 6 1 1 2 4 3 1 4 5 4 5 3 4 5 5 6 6 6 6 4 3 6 9 10 8 8 8 8 8 8 7 8 8 8 10 13 14 17 19 21 21 21 22 23 23 23 24 24 23 22 22 21 21 20 20 20 22 23 25 26 26 27 28 29 29 29 30 30 30 31 30 29 29 28
7 4 3 2 3 2 2 5 6 5 8 10 7 2 2 2 3 1 1 3 5 5 4 2 4 6 7 7 7 7 3 2 3 6 9 10 10 10 10 9 9 8 9 11 14 15 17 19 18 19 21 22 23 23 23 24 24 23 24 25 25 25 24 23 22 21 20 21 22 24 25 26 25 26 26 26 27 28 29 30 30 30 28 27 28 29
8 6 5 3 3 3 3 4 5 6 6 4 4 4 2 2 3 2 1 2 5 6 5 4 6 8 7 7 8 5 0 2 4 7 7 8 9 10 10 10 10 11 13 15 17 19 21 21 20 20 22 22 24 25 25 25 24 23 24 25 26 26 26 25 23 22 21 22 23 25 27 27 26 26 26 25 25 26 27 29 30 29 28 26 26 27
5 5 5 3 3 3 4 5 5 5 4 2 4 5 4 3 3 4 3 3 3 5 6 7 9 9 7 8 8 3 2 3 6 7 7 7 8 9 9 9 10 14 17 18 19 19 20 20 19 20 22 21 23 26 26 25 24 23 22 24 25 25 26 26 25 24 23 24 25 26 28 28 27 27 27 27 27 27 27 28 29 30 28 26 25 25
2 2 3 4 5 6 6 6 5 4 3 3 5 5 3 3 5 4 5 4 3 4 6 7 9 9 7 7 5 4 4 5 6 8 9 7 6 8 10 10 11 12 15 18 19 18 17 17 18 19 21 22 24 27 27 26 25 23 23 24 24 24 26 27 27 26 26 27 27 28 29 29 28 28 28 29 30 29 29 29 29 30 29 28 26 25
1 0 2 3 5 9 9 6 4 4 4 5 7 6 4 3 3 1 7 5 5 6 6 6 8 9 7 6 5 4 6 8 8 10 10 7 7 8 10 13 15 14 15 16 16 15 14 16 18 20 22 25 27 28 29 28 25 24 25 24 24 27 29 28 28 28 29 29 29 30 31 30 29 29 30 30 30 30 30 30 31 31 30 30 29 27
0 0 2 2 3 5 5 5 5 5 4 4 5 4 3 3 1 5 6 3 3 6 5 4 7 7 6 7 6 5 7 9 9 11 11 10 11 10 9 11 13 15 16 16 17 18 17 17 20 22 24 27 28 28 29 27 25 26 27 25 27 31 31 28 29 30 30 31 31 31 31 31 31 31 31 31 29 29 31 32 31 31 31 30 30 29
3 1 2 3 3 2 2 3 5 5 3 3 2 1 2 3 4 4 4 5 7 8 7 5 6 6 6 7 7 7 8 9 10 11 11 11 10 8 8 8 8 11 14 16 19 21 18 18 20 23 27 29 29 29 28 25 25 27 27 28 32 33 30 28 30 30 31 32 32 32 32 32 32 32 31 30 29 29 32 33 32 31 31 30 29 28
2 3 3 4 3 2 3 5 5 4 3 3 3 2 4 5 5 5 6 7 7 7 6 5 5 6 6 5 6 8 9 9 10 10 8 8 7 6 7 7 8 11 14 16 20 22 19 18 21 25 28 31 30 30 28 25 26 27 28 32 35 32 29 29 31 30 32 33 33 33 33 32 32 32 31 31 31 31 32 33 32 30 29 29 28 25
5 6 5 4 4 4 5 7 5 3 4 5 4 5 8 10 9 8 6 5 6 6 5 4 5 6 5 4 5 7 7 8 8 7 6 6 7 8 8 9 11 13 16 19 22 23 21 20 22 25 29 32 33 31 29 27 26 26 30 34 33 29 28 31 31 31 32 33 34 34 34 34 34 34 33 33 32 30 31 33 31 30 29 27 26 24
6 5 2 2 5 4 6 10 9 6 8 10 9 9 10 10 9 8 6 5 6 5 4 3 3 4 4 3 3 4 5 5 6 7 7 7 9 10 10 11 14 16 18 20 22 23 23 22 24 25 27 32 35 33 30 28 26 27 31 34 32 29 29 31 31 32 32 33 34 34 34 34 35 35 35 35 33 32 32 32 31 30 29 26 25 24
5 4 3 5 8 6 7 11 10 8 10 12 10 11 11 9 8 7 4 4 4 3 2 2 2 2 2 3 2 3 5 5 5 7 8 7 9 11 10 10 14 17 19 21 22 24 24 23 23 24 26 31 35 34 31 30 30 29 31 32 32 30 30 29 30 31 32 33 34 34 33 33 34 35 36 36 35 33 32 32 31 30 29 27 25 23
2 3 4 7 10 8 10 14 11 7 10 11 9 9 9 10 10 6 2 1 2 3 3 2 2 2 2 2 2 4 6 6 5 6 8 8 9 10 9 10 14 19 22 24 24 24 24 23 24 25 26 30 34 35 33 33 34 33 33 32 32 31 30 31 31 32 34 36 36 35 35 34 34 34 34 35 34 33 32 32 31 29 29 29 28 25
2 2 3 4 6 8 11 14 12 8 9 11 11 9 6 5 5 2 4 3 3 4 3 2 1 1 1 3 3 4 7 8 5 5 8 9 9 9 10 13 18 21 24 26 26 26 25 25 26 27 28 31 34 36 37 38 39 38 36 35 35 34 34 36 37 37 39 39 38 37 36 35 34 33 33 33 33 33 33 33 32 30 32 34 34 32
3 7 6 2 5 8 10 12 9 6 8 10 8 4 1 2 2 2 3 3 4 4 4 4 4 2 2 3 4 4 7 8 7 6 8 9 10 11 13 16 20 22 24 26 27 28 28 28 29 30 32 36 37 37 39 41 42 41 39 39 39 38 39 39 39 39 40 39 37 37 36 34 34 33 32 32 32 32 33 35 35 33 34 36 38 38
6 9 8 5 8 11 13 13 8 5 8 9 3 2 2 2 2 2 2 2 2 3 3 4 6 6 4 3 4 5 7 8 8 8 9 10 12 15 17 18 19 21 24 26 27 28 30 32 32 32 33 37 39 38 40 42 44 43 42 41 40 39 40 40 36 35 36 35 34 34 34 33 34 35 34 33 33 32 32 34 36 37 37 38 39 40
Wind_Direction
133 159 167 186 214 224 221 211 222 248 300 312 250 262 262 272 271 263 271 270 228 288 265 255 271 278 276 273 271 275 277 267 263 268 273 276 277 275 274 270 264 259 264 280 293 299 301 291 285 275 267 260 252 245 240 236 232 230 226 224 223 222 218 215 212 210 208 208 207 209 213 217 219 219 219 220 221 222 222 222 221 220 219 218 218 217
129 191 206 216 222 224 225 221 233 261 298 273 256 278 271 259 272 271 274 278 253 249 258 251 273 277 275 277 272 264 265 261 258 261 270 274 275 277 277 271 269 270 279 302 325 340 336 314 296 280 266 254 248 244 238 234 233 230 225 224 224 221 216 214 213 210 209 210 209 209 213 216 217 217 217 218 220 220 221 221 219 219 218 218 218 217
215 219 227 231 232 289 29 71 108 223 244 252 246 277 276 260 279 274 263 282 303 219 271 280 278 277 270 267 261 253 251 257 265 262 261 268 272 273 271 273 292 309 308 328 8 11 350 324 303 284 267 256 251 249 244 238 235 229 225 225 224 220 216 215 214 212 212 213 213 212 214 215 214 216 218 219 220 220 219 219 218 218 217 217 217 216
230 236 233 235 227 233 274 78 82 292 251 226 218 261 272 255 273 269 258 305 324 242 274 293 286 281 265 258 257 257 255 258 267 262 254 256 257 263 272 297 320 313 314 331 356 358 326 307 294 282 274 270 263 256 250 243 236 230 228 227 223 220 219 217 215 215 215 214 214 214 217 218 216 219 220 218 221 221 219 219 218 218 217 217 217 216
239 232 212 215 189 199 235 234 202 266 263 227 206 227 258 253 248 252 272 329 323 282 295 312 298 289 258 250 258 281 290 257 257 266 262 254 249 265 290 308 298 299 317 324 326 315 298 294 297 298 297 292 279 269 263 254 244 237 234 231 226 223 221 219 217 215 213 212 211 210 214 217 215 217 217 215 219 219 218 219 218 217 217 216 217 217
255 236 167 148 170 177 204 233 218 221 251 263 213 212 238 253 255 260 288 341 343 308 340 3 321 301 312 216 270 313 322 267 252 252 253 256 283 356 297 302 353 18 343 298 288 287 284 301 314 317 323 318 298 290 286 275 260 249 241 235 229 225 222 221 218 214 210 209 208 205 203 203 203 206 210 212 215 214 215 218 218 217 217 216 217 217
259 264 219 159 141 131 165 239 224 196 235 283 235 211 228 246 256 264 284 327 298 260 297 43 350 286 288 223 258 267 259 269 262 248 255 272 10 345 287 323 31 33 355 311 273 274 296 325 317 317 331 333 320 316 311 296 279 261 248 240 233 228 224 222 218 213 210 208 208 206 206 206 205 208 215 217 217 215 216 217 217 217 217 216 216 216
209 283 40 99 111 126 173 243 220 173 190 267 242 192 202 224 239 238 238 233 239 277 298 158 149 277 284 252 253 234 187 257 262 258 272 291 311 292 291 17 56 97 211 270 273 295 323 309 289 308 333 339 336 336 329 316 300 278 258 246 238 232 227 223 219 214 211 210 209 209 211 213 215 217 222 223 221 220 219 217 217 217 216 216 216 216
166 189 176 137 113 160 202 225 186 157 186 253 196 135 160 195 209 171 179 216 260 340 302 222 149 253 278 267 26 60 162 243 260 264 277 289 300 297 312 53 70 207 205 260 288 328 295 278 299 336 346 349 352 351 345 334 318 296 271 253 242 236 230 226 222 217 215 213 212 212 212 216 220 222 226 228 225 222 220 217 217 216 216 215 214 215
185 214 187 149 144 210 217 217 174 163 196 227 122 91 74 78 76 101 155 150 59 311 255 201 172 234 280 274 98 68 204 235 257 269 278 281 284 288 323 44 14 336 342 286 285 301 280 305 350 359 358 1 2 358 354 347 335 317 288 260 246 240 234 229 225 220 218 216 214 215 216 218 222 222 223 227 225 221 218 217 216 216 216 215 214 214
251 351 162 161 190 206 174 117 172 170 174 140 107 58 34 40 38 51 42 80 60 285 238 187 186 193 284 281 143 176 227 218 244 284 295 304 313 306 320 345 20 11 315 284 313 326 327 6 13 7 8 8 3 359 357 353 346 332 306 273 256 247 239 233 228 224 221 218 217 218 219 220 222 222 220 221 220 216 214 214 214 214 215 215 215 214
118 117 224 240 209 139 111 77 354 94 117 101 86 45 5 338 14 27 356 43 161 269 249 189 186 187 238 262 189 254 260 230 225 266 299 317 325 313 301 329 37 350 272 300 0 350 358 17 11 4 7 5 0 359 356 352 348 340 322 292 270 258 246 238 232 228 225 221 221 222 222 223 223 222 221 220 219 215 213 213 212 212 213 214 215 214
255 206 234 278 210 147 129 130 338 19 77 93 99 82 336 319 347 351 324 63 216 263 282 217 187 221 245 263 280 271 274 262 227 224 251 274 292 295 300 3 39 314 299 351 7 359 9 6 353 358 1 359 357 356 354 352 348 341 334 314 288 277 261 246 239 233 229 226 225 225 225 225 225 223 223 223 222 220 217 215 212 211 211 211 212 213
286 267 218 191 247 173 150 175 234 254 151 149 156 159 159 199 272 276 258 262 266 278 311 313 264 276 280 285 243 247 269 287 252 220 237 253 272 284 299 356 20 329 334 1 6 7 2 352 0 358 354 357 357 355 357 358 353 346 341 329 310 300 282 258 247 240 235 232 230 228 228 228 227 225 225 226 225 224 222 218 215 214 213 213 215 216
252 287 216 179 218 171 174 196 185 139 154 180 162 142 157 177 210 242 227 257 280 289 310 299 199 233 260 276 241 235 265 300 302 278 276 274 266 277 310 9 10 348 357 4 10 10 358 359 1 349 351 4 5 4 5 3 359 354 347 337 324 316 303 278 259 248 242 240 235 232 231 231 230 229 229 228 228 227 225 222 219 218 218 218 220 220
216 265 244 219 78 157 178 205 139 113 142 200 132 121 201 193 181 230 234 227 253 290 283 239 224 233 232 269 273 267 283 298 308 307 299 293 292 313 357 28 11 359 10 8 12 14 8 13 10 4 15 18 13 11 9 7 6 4 357 348 339 330 319 302 280 262 254 249 242 238 235 234 233 232 232 232 231 229 228 226 223 223 224 223 223 223
232 264 261 29 354 177 182 181 126 135 193 159 125 177 227 158 144 222 264 232 152 255 251 228 254 274 292 286 288 343 339 337 356 339 305 303 327 349 15 32 15 8 19 17 20 22 21 27 21 19 25 22 16 13 9 8 12 16 15 5 355 348 340 329 311 289 272 260 251 246 242 239 236 235 234 234 234 232 230 229 228 227 227 227 226 225
248 270 257 147 206 239 191 111 35 343 140 131 171 218 223 86 119 170 264 318 189 245 250 240 259 275 292 283 307 4 330 333 357 345 347 352 354 10 21 26 22 21 26 23 23 21 20 28 24 21 23 20 17 14 10 9 14 22 25 19 10 4 359 352 338 316 295 277 264 257 251 246 242 240 239 238 237 236 234 232 230 229 229 229 228 227
280 269 277 177 198 234 59 82 344 320 134 141 209 242 109 182 235 186 173 214 236 248 249 222 245 259 252 259 287 316 306 320 344 338 2 11 13 22 20 20 23 23 23 21 21 17 14 23 24 22 21 19 18 15 13 14 20 26 26 23 19 15 12 9 359 341 318 297 282 272 264 256 251 247 245 243 242 240 237 236 234 232 231 230 230 229
359 256 276 348 175 47 37 107 196 240 327 65 317 318 52 190 225 214 186 192 239 251 258 229 230 243 236 259 292 302 297 330 354 6 21 23 26 29 25 21 19 17 18 16 17 16 15 22 26 25 22 20 19 14 13 19 24 26 24 21 20 17 15 13 7 358 340 321 303 287 276 268 261 255 252 249 246 243 241 240 238 237 235 233 231 230
24 266 267 270 251 311 276 208 188 190 187 142 221 249 238 203 246 279 239 161 221 252 265 254 241 246 255 279 295 316 10 20 19 32 45 41 34 30 27 25 18 13 13 11 12 15 21 27 28 27 24 22 19 17 18 20 21 22 21 18 16 15 14 11 7 3 354 342 325 305 291 281 272 264 258 254 250 247 245 244 243 241 240 237 234 231
189 249 253 264 265 254 249 227 189 190 187 180 197 203 212 219 249 280 260 203 198 228 235 254 259 248 232 258 286 359 50 45 29 40 57 50 35 28 25 21 17 16 11 7 9 12 15 18 18 18 19 18 18 18 19 19 19 18 18 16 14 12 11 9 7 4 1 355 344 326 310 297 285 274 266 260 255 252 249 247 246 244 242 239 236 233
157 162 235 251 250 258 270 266 181 201 210 208 222 203 212 222 217 249 260 249 234 231 223 248 260 252 230 253 354 53 62 52 37 41 47 41 34 32 26 18 16 16 13 10 11 13 14 15 15 16 18 17 17 16 16 16 16 15 13 13 13 11 9 8 7 6 6 4 357 347 332 316 301 287 275 266 261 257 254 251 249 247 244 241 239 236
111 126 240 257 264 280 290 313 44 54 223 231 259 227 217 236 238 244 256 271 265 247 240 253 254 263 323 330 68 78 77 60 47 43 38 29 24 22 17 20 20 15 15 14 12 13 12 14 18 20 19 17 15 13 12 12 11 11 10 10 10 9 8 8 8 7 8 7 5 2 353 339 323 306 289 277 270 265 261 257 253 249 247 244 241 238
341 244 248 271 287 293 294 301 353 25 35 239 266 268 259 301 306 300 287 262 249 228 230 252 253 210 288 319 46 66 75 72 57 45 44 36 19 11 7 9 11 9 14 15 14 14 11 14 18 18 16 15 13 11 9 8 8 8 8 7 7 6 5 6 6 6 7 7 7 7 3 356 345 328 309 295 285 276 271 265 259 254 250 246 243 240
72 274 256 263 263 261 276 283 285 3 332 292 290 313 337 328 299 300 295 267 261 236 224 255 282 268 272 304 359 17 32 60 58 44 46 39 20 13 5 359 359 2 5 4 6 8 7 11 14 12 12 11 10 10 8 6 6 5 5 6 6 5 4 4 4 5 5 5 5 5 4 1 356 346 332 317 304 293 284 275 266 260 254 249 246 242
139 251 231 242 256 260 274 281 292 354 281 275 296 304 301 292 280 283 277 261 278 287 269 268 279 283 289 305 342 6 3 16 31 31 37 34 14 4 359 351 346 345 349 353 355 356 358 360 0 1 2 2 4 5 5 5 5 4 4 4 4 4 4 3 3 3 3 2 2 1 1 360 358 355 348 338 326 314 301 288 277 267 260 255 249 244
133 248 234 242 255 262 273 283 307 335 289 280 294 293 286 287 284 275 269 272 289 292 276 277 285 286 291 301 331 16 358 352 360 0 9 17 352 341 345 344 342 338 337 343 346 347 350 347 345 348 351 353 355 357 359 1 2 2 2 1 2 3 3 2 1 2 1 360 359 357 356 356 355 355 354 351 344 334 321 307 293 280 270 261 252 247
130 263 249 246 264 269 281 292 297 292 281 276 280 282 283 282 276 269 267 271 274 270 272 286 286 280 285 293 351 43 0 329 317 316 317 316 310 314 320 328 338 338 335 337 337 334 327 323 326 333 339 344 348 350 354 356 356 358 358 357 358 359 360 360 360 360 359 358 356 354 353 353 354 354 354 354 353 348 339 327 313 298 283 269 258 252
164 255 257 260 288 290 287 288 287 287 285 278 271 268 270 271 269 269 269 266 260 259 266 273 272 274 284 122 159 91 357 281 274 286 285 283 293 306 307 304 306 306 312 321 325 328 329 327 326 322 328 338 344 347 351 352 352 353 352 352 353 354 355 355 355 356 356 355 354 353 352 352 353 353 354 354 353 351 347 341 330 315 299 283 269 260
240 276 309 333 315 291 280 279 281 284 283 280 278 270 262 263 265 267 268 267 263 263 265 265 267 271 232 123 245 283 293 288 293 291 282 270 276 301 306 300 296 289 287 292 300 310 317 320 323 324 327 334 339 344 346 347 347 346 346 347 347 348 349 349 349 349 349 349 350 351 352 351 351 352 352 352 351 350 348 345 340 329 315 300 285 272
302 309 322 325 294 275 276 281 286 295 296 286 277 267 261 260 259 259 262 265 266 270 275 276 275 271 137 157 268 271 269 295 300 293 291 272 252 273 286 293 302 299 290 286 287 292 299 305 313 319 323 328 333 337 339 340 341 340 341 341 340 341 342 342 342 342 341 342 344 347 349 349 349 349 349 350 350 349 348 346 343 337 328 315 300 286
217 244 280 276 268 273 280 297 347 354 314 282 263 254 254 255 259 262 262 266 271 262 272 279 273 165 183 215 249 272 268 275 278 280 293 287 268 262 266 278 289 286 281 280 277 280 285 290 298 305 314 321 325 328 329 330 331 332 333 333 334 335 336 335 335 335 335 337 339 342 344 344 345 345 345 346 347 347 347 346 342 338 332 324 313 299
211 225 234 216 241 270 286 9 24 314 274 268 260 231 242 248 259 268 257 236 249 158 143 303 118 133 188 206 216 245 244 244 260 264 271 277 273 266 265 267 272 270 269 268 268 273 277 283 294 302 309 314 317 321 323 322 322 322 324 326 326 328 329 328 327 327 328 330 333 337 338 339 339 339 339 341 343 345 346 345 342 338 334 328 321 308
220 217 223 194 211 257 316 21 311 264 250 264 297 147 230 211 181 213 190 178 196 136 106 103 185 204 217 215 219 233 236 238 246 254 263 263 249 251 262 268 273 276 276 274 273 274 276 284 294 300 304 308 310 314 316 316 317 318 319 320 320 320 320 320 319 320 321 322 326 330 332 332 332 332 333 335 337 339 341 342 341 339 336 330 322 312
224 209 203 205 206 235 38 199 239 259 289 295 287 244 115 105 111 93 293 227 209 171 141 166 221 227 237 245 242 241 245 253 254 255 263 261 246 239 245 258 269 271 270 273 272 271 275 281 287 293 299 302 304 306 308 309 312 313 314 316 316 314 315 314 312 313 314 316 319 324 326 326 325 325 327 329 331 332 334 336 336 336 335 330 324 317
210 197 182 215 228 215 211 222 241 294 308 293 280 246 145 154 154 136 289 240 205 189 181 204 234 235 237 249 254 251 255 328 310 272 261 253 240 229 229 239 252 258 263 267 269 272 276 280 285 291 295 298 299 300 303 305 307 307 309 311 312 312 313 310 307 307 309 312 315 318 320 320 319 319 321 324 325 325 326 327 329 331 332 328 323 319
203 203 194 213 238 212 221 254 260 272 277 263 249 254 244 212 182 139 73 250 202 200 207 213 235 242 234 238 251 254 313 349 288 276 267 247 230 227 232 238 243 248 257 264 268 273 275 278 284 292 295 295 294 296 300 303 302 302 303 304 307 309 308 306 305 307 308 310 312 315 317 316 314 313 315 317 317 318 319 320 321 324 325 322 317 313
185 207 200 210 254 239 233 256 254 255 260 208 209 242 248 213 152 95 16 306 204 218 231 211 223 241 238 237 241 210 137 259 265 273 270 245 227 228 237 245 248 249 254 260 264 266 271 278 288 296 296 294 293 297 303 304 300 297 296 297 301 302 301 299 301 305 306 307 309 310 312 312 310 310 311 312 312 312 313 314 315 316 317 314 309 306
133 201 207 208 238 245 243 254 253 255 272 235 224 237 227 170 111 62 314 281 185 232 243 205 216 240 238 236 233 180 191 240 259 270 267 250 237 238 241 247 252 251 257 265 268 268 276 288 297 298 297 295 296 301 305 304 300 295 291 292 294 292 289 291 296 301 303 303 304 306 308 309 308 307 308 309 308 308 309 309 311 311 310 307 303 299
57 288 246 222 234 241 243 253 262 262 261 243 231 221 186 113 76 284 261 233 190 235 242 198 218 243 236 229 222 194 218 240 255 271 277 278 278 269 256 260 270 276 279 280 283 288 295 300 299 296 294 294 296 300 301 301 299 293 289 291 289 285 286 291 295 298 299 299 300 302 303 304 304 304 305 305 304 304 305 305 306 306 304 302 300 295
142 25 297 253 235 244 241 251 274 276 248 208 215 215 151 115 186 227 224 208 232 273 281 233 234 247 240 233 227 222 246 258 265 274 278 276 275 276 277 282 289 295 298 299 302 306 308 305 301 295 292 293 294 295 295 296 292 288 288 288 284 285 290 294 295 296 296 296 297 298 299 300 300 300 302 301 301 301 301 302 302 301 299 297 294 291
187 163 251 223 203 240 247 237 257 272 246 157 145 259 183 175 213 244 279 299 296 301 305 286 264 255 240 238 243 254 269 275 276 276 274 273 277 285 293 298 297 298 303 306 305 305 307 304 298 294 293 294 294 293 293 292 288 286 287 284 283 288 294 295 295 296 295 294 294 295 296 296 296 297 297 297 297 298 298 298 297 295 293 290 287 284
202 179 228 236 208 195 225 230 225 227 231 186 147 199 245 251 264 287 301 302 300 299 293 284 275 255 236 237 260 274 278 278 278 283 286 291 301 306 302 304 303 299 302 302 299 302 304 299 294 294 294 294 294 294 294 291 286 284 283 282 286 292 295 295 295 294 292 292 292 293 293 293 293 293 292 291 294 295 295 294 292 290 287 283 279 275
215 195 211 240 223 189 209 240 237 205 231 242 214 227 259 274 285 289 285 277 279 282 283 282 276 268 262 265 271 273 277 282 291 306 314 312 308 306 303 302 300 299 300 299 299 303 304 299 295 294 294 293 294 294 293 291 287 282 281 284 290 295 297 297 296 293 290 290 289 289 290 291 290 289 288 289 291 291 290 290 289 286 283 279 273 267
230 206 178 264 265 254 249 255 256 257 268 270 265 265 272 277 282 285 278 267 271 281 291 295 286 292 314 329 294 277 283 302 316 316 314 311 304 300 301 301 302 304 303 301 303 306 308 305 299 296 294 294 295 295 295 294 290 284 284 290 295 298 298 297 295 291 289 288 287 287 288 288 288 288 288 288 288 286 285 284 282 280 278 275 269 263
250 213 206 249 261 265 263 259 255 251 261 266 269 273 277 274 271 272 270 272 285 316 353 10 8 354 11 31 2 300 292 302 312 305 304 304 298 299 304 305 305 307 304 301 305 308 309 306 300 297 296 296 296 298 299 298 294 290 292 296 299 301 302 299 295 292 290 289 288 287 286 285 285 286 286 287 286 285 282 279 276 273 271 270 267 262
251 189 201 235 245 244 255 264 263 250 253 260 261 265 271 273 277 289 2 49 56 64 54 44 56 50 25 1 318 295 292 291 290 293 298 297 294 298 304 304 305 306 304 305 308 310 308 304 300 299 298 296 297 301 303 301 299 299 300 302 304 307 307 304 299 295 292 290 288 287 284 283 282 282 282 283 282 280 279 277 274 270 266 264 262 260
146 203 202 215 248 256 262 268 272 272 268 264 257 255 265 283 292 344 57 62 54 48 30 17 34 40 326 298 285 286 292 292 290 291 293 293 295 300 304 306 306 305 304 306 309 309 307 304 303 303 301 299 301 304 304 303 302 303 305 306 307 308 307 303 299 295 291 288 286 284 282 281 280 278 277 277 277 275 272 271 270 270 269 268 264 260
165 242 241 225 263 263 260 262 265 268 271 270 264 256 291 3 28 62 58 41 38 29 1 343 333 311 268 279 299 304 291 290 300 307 297 292 294 299 303 305 304 302 303 307 309 309 308 307 307 307 304 303 305 306 304 303 303 304 305 306 305 304 302 298 294 291 288 285 283 283 283 282 281 279 277 276 276 276 274 272 269 267 267 269 269 265
207 238 240 235 250 257 261 263 258 245 262 272 268 122 82 22 41 67 42 23 32 21 0 342 324 314 298 282 294 297 287 290 305 310 300 292 294 299 302 302 301 302 306 310 312 312 311 310 310 308 305 305 306 305 303 302 302 303 304 304 303 300 296 293 290 288 285 284 283 283 284 284 283 282 281 279 278 278 279 279 277 272 268 267 268 268